weather.gov     
National Weather Service

Terminal Aerodrome Forecast
NWS Homepage
This page is being discontinued on March 12, 2014.
The same data is available at this site. Please update your bookmarks.
Thank you, and we apologize for the inconvenience.
Please send an email to SR-SRH.Webmaster@noaa.gov with any concerns.


Current Version
Previous Version:    01  02  03  04  05  06  07  08  09  10  11  12  13  14  15  16  17  18  19  20  21  22  23  24  25  26  27  28  
[Printable]
514
FTUS41 KCAR 161700
TAFBHB
TAF
KBHB 161720Z 1618/1718 23006KT P6SM VCSH FEW015 OVC070
     FM162100 20007KT P6SM BKN045
     FM170000 VRB03KT P6SM FEW050 SCT120
     FM170500 VRB03KT 3SM BR SCT250
     FM171100 24004KT P6SM SCT200
      AMD LTD TO CLD VIS AND WIND=


U.S. Dept. of Commerce
NOAA National Weather Service
1325 East West Highway
Silver Spring, MD 20910
E-mail: w-nws.webmaster@noaa.gov
Page last modified: May 16, 2007
NATIONAL WEATHER SERVICE: for Safety, for Work, for Fun - FOR LIFE